Tracking 18840 objects as of 19-November-2017
HD Live streaming from Space Station
objects crossing your sky now

FENGYUN 1C DEB

Track FENGYUN 1C DEB now!
10-day predictions


NORAD ID: 30303
Int'l Code: 1999-025ZQ
Perigee: 804.5 km
Apogee: 942.6 km
Inclination: 99.1 °
Period: 102.3 minutes
Semi major axis: 7244 km
RCS: 0.0059 m2 (small)
Launch date: May 10, 1999
Source: People's Republic of China (PRC)
Launch site: Taiyaun Space Center, China (TSC)

Note: This is SATELLITE DEBRIS
aabbcc
Your satellite tracking list
Your tracking list is empty




NASA's NSSDC Master Catalog

Two Line Element Set (TLE):
1 30303U 99025ZQ  17323.54493520  .00000817  00000-0  48778-3 0  9995
2 30303  99.1246 316.4466 0095374 293.0567 193.5191 14.07944713554522
Source of the keplerian elements: AFSPC